Regional Weather Roundup
Issued by NWS

Home | Current Version | Previous Version | Graphics & Text | Print | Product List | Glossary On
Versions: 1 2 3 4 5 6 7 8 9 10 11 12 13 14 15 16 17 18 19 20 21 22 23 24 25 26 27 28 29 30 31 32 33 34 35 36 37 38 39 40 41 42 43 44 45 46 47 48 49 50
000
ASUS43 KMPX 210510
RWRMN
WEATHER ROUNDUP FOR MINNESOTA
NATIONAL WEATHER SERVICE TWIN CITIES/CHANHASSEN MN
1200 AM CDT TUE OCT 21 2014


NOTE: "FAIR" INDICATES FEW OR NO CLOUDS BELOW 12,000 FEET WITH NO
SIGNIFICANT WEATHER AND/OR OBSTRUCTIONS TO VISIBILITY. N/A MEANS
CURRENT SKY AND/OR WEATHER CONDITIONS ARE NOT AVAILABLE.

MNZ060>063-068>070-210600-
   Twin Cities Metro

CITY           SKY/WX    TMP DP  RH WIND       PRES   REMARKS
TWIN CITIES    CLEAR     45  39  79 NE5       30.09S
ST PAUL        CLEAR     43  38  82 NW3       30.10S
CRYSTAL        CLEAR     40  36  86 CALM      30.08S
BLAINE         CLEAR     41  39  93 CALM      30.09S
LAKEVILLE      CLEAR     39  37  93 CALM      30.08S
EDEN PRAIRIE   CLEAR     47  40  76 NE3       30.08R
SOUTH ST PAUL  CLEAR     46  38  75 CALM      30.09S
LAKE ELMO      FAIR      37  37 100 CALM      30.09S
$$
MNZ001>005-007-008-013>017-022>024-027-028-210600-
   Northwest Minnesota

CITY           SKY/WX    TMP DP  RH WIND       PRES   REMARKS
BEMIDJI        CLEAR     37  36  94 SE5       30.10S
HALLOCK        CLEAR     45  37  76 SE9       30.06R
ROSEAU         CLEAR     39  34  81 SE7       30.10R
WARROAD        CLEAR     39  36  87 SE7       30.11R
THIEF RVR FALL CLEAR     37  34  87 E8        30.08S
CROOKSTON      CLEAR     45  37  76 SE12      30.07S
FOSSTON        CLEAR     37  34  87 SE6       30.09S
DETROIT LAKES  CLEAR     45  37  76 SE8       30.09R
MOORHEAD       CLEAR     45  39  81 SE6       30.07R
PARK RAPIDS    CLEAR     40  37  89 E3        30.10R
MAHNOMEN       FAIR      41  37  86 SE8       30.08S
$$
MNZ006-009>011-018-025>026-210600-
   North Central Minnesota

CITY           SKY/WX    TMP DP  RH WIND       PRES   REMARKS
BAUDETTE       CLEAR     35  33  92 E6        30.11S WCI  30
FLAG ISLAND    CLEAR     43  37  81 SE9G17    30.10S
INTL FALLS     CLOUDY    43  35  73 E9        30.13S
WASKISH        CLEAR     28  28 100 CALM      30.11S
BIG FORK       CLEAR     30  28  93 CALM      30.12S
LONGVILLE      CLEAR     30  30 100 CALM        N/A
GRAND RAPIDS   CLEAR     34  30  86 CALM      30.11S
CRANE LAKE     CLOUDY    39  36  87 E3        30.16S
ORR            CLOUDY    43  34  70 CALM      30.11R
COOK           CLOUDY    43  36  75 E5        30.13S
WALKER         FAIR      42  38  86 E3        30.10S
$$
MNZ012-019>021-037-210600-
   Northeast Minnesota

CITY           SKY/WX    TMP DP  RH WIND       PRES   REMARKS
DULUTH         CLOUDY    45  36  70 NE9       30.11R
ELY            CLOUDY    41  34  75 E5        30.14R
HIBBING        CLOUDY    45  34  65 E7        30.12R
EVELETH        CLOUDY    43  34  70 E5        30.13R
DULUTH HARBOR  CLOUDY    50  41  71 NE17      30.13R
TWO HARBORS    CLOUDY    48  27  43 NE3       30.11R
SILVER BAY     CLEAR     45  37  76 NE7       30.12R
GRAND MARAIS     N/A     42  33  70 NE8       30.17R
G MARAIS ARPRT CLOUDY    36  28  75 N6        30.14R
$$
MNZ029>031-032-039>041-046>048-054>057-064-210600-
   West Central Minnesota

CITY           SKY/WX    TMP DP  RH WIND       PRES   REMARKS
FERGUS FALLS   CLEAR     46  36  66 E5        30.08R
WHEATON        CLEAR     37  34  87 CALM      30.08S
MORRIS         CLEAR     43  36  75 E5        30.06S
ALEXANDRIA     CLEAR     45  38  76 E9        30.09R
ELBOW LAKE     FAIR      47  39  73 E7        30.06S
WADENA         CLEAR     39  36  87 E5        30.10R
GLENWOOD       CLEAR     43  37  81 E8        30.09R
APPLETON       CLEAR     37  34  87 CALM      30.07R
BENSON         CLEAR     36  34  93 E3        30.08R
ORTONVILLE     CLEAR     45  37  76 CALM      30.06S
MADISON        CLEAR     43  37  81 CALM      30.07S
WILLMAR        FAIR      46  37  71 E6        30.10R
$$
MNZ033>034-036-042>043-049>051-058-059-210600-
   Central Minnesota

CITY           SKY/WX    TMP DP  RH WIND       PRES   REMARKS
ST CLOUD       CLEAR     41  36  82 CALM      30.10R
SAUK CENTRE    FAIR      42  38  84 E7        30.09S
PAYNESVILLE    CLEAR     41  37  86 NE6       30.09S
AITKIN         CLEAR     32  27  80 CALM      30.10R
PINE RIVER     CLEAR     32  30  93 CALM      30.14R
BRAINERD       CLEAR     35  35 100 CALM      30.11R
STAPLES        CLEAR     39  36  87 CALM      30.10S
LONG PRAIRIE   FAIR      39  37  93 CALM      30.10R
LITTLE FALLS   CLEAR     37  34  87 CALM      30.10S
LITCHFIELD     CLEAR     43  39  87 E5        30.09S
BUFFALO        CLEAR     43  37  80 CALM      30.11R
MAPLE LAKE     CLEAR     41  38  89 NE3       30.10S
$$
MNZ037-044-045-052-053-210600-
   East Central Minnesota

CITY           SKY/WX    TMP DP  RH WIND       PRES   REMARKS
PRINCETON      CLEAR     37  37 100 N3        30.10S
MORA           CLEAR     34  32  93 CALM      30.12S
CAMBRIDGE      CLEAR     37  30  75 CALM      30.09R
RUSH CITY      CLEAR     39  35  87 CALM      30.11R
MOOSE LAKE     CLOUDY    43  36  75 CALM      30.09S
HINCKLEY       FAIR      34  34 100 CALM      30.11S
CLOQUET        CLOUDY    45  36  70 CALM      30.11S
MCGREGOR       CLEAR     34  32  93 CALM      30.12R
$$
MNZ071>073-080-081-089-090-097-098-210600-
   Southwest Minnesota

CITY           SKY/WX    TMP DP  RH WIND       PRES   REMARKS
MONTEVIDEO     CLEAR     45  37  76 CALM      30.08S
GRANITE FALLS  CLEAR     35  31  86 CALM      30.09R
CANBY          CLEAR     39  35  86 CALM      30.07F
MARSHALL       CLEAR     39  30  70 CALM      30.06S
REDWOOD FALLS  CLEAR     49  38  65 E3        30.07R
OLIVIA         CLEAR     46  37  71 E5        30.07R
PIPESTONE      CLEAR     46  36  66 E3        30.06F
WINDOM         CLEAR     41  36  81 CALM      30.08R
WORTHINGTON    CLEAR     39  32  75 CALM      30.09R
JACKSON        CLEAR     39  34  81 CALM      30.08S
TRACY          CLEAR     45  37  75 SW5       30.08S
SLAYTON        CLEAR     40  35  81 CALM      30.08S
$$
MNZ065>067-074>077-082>085-091>093-210600-
   South Central Minnesota

CITY           SKY/WX    TMP DP  RH WIND       PRES   REMARKS
MANKATO        CLEAR     46  36  66 E7        30.07S
NEW ULM        CLEAR     50  39  66 E7        30.08R
ST JAMES       CLEAR     41  36  81 CALM      30.08S
FAIRMONT       CLEAR     43  36  75 N3        30.07S
GLENCOE        CLEAR     41  38  89 CALM      30.08R
FARIBAULT      CLEAR     37  36  93 CALM      30.08S
OWATONNA       CLEAR     45  37  76 E7        30.07S
WASECA         CLEAR     43  34  70 NE7       30.08S
ALBERT LEA     CLEAR     45  39  81 CALM      30.07R
$$
MNZ078>079-086>088-094>096-210600-
   Southeast Minnesota

CITY           SKY/WX    TMP DP  RH WIND       PRES   REMARKS
ROCHESTER      CLEAR     44  38  79 CALM      30.07F
RED WING       CLEAR     39  37  93 CALM      30.07S
STANTON        CLEAR     39  35  88 CALM      30.07S
DODGE CENTER   PTCLDY    41  37  87 E3        30.07S
WINONA         CLEAR     43  39  87 CALM      30.07S
AUSTIN         CLEAR     43  39  87 CALM      30.06S
PRESTON        CLEAR     43  38  82 CALM      30.07S
$$
ABBREVIATIONS USED IN REMARKS
   TC - TEMPERATURES IN CELSIUS
  WCI - WIND CHILL INDEX
   HX - HEAT INDEX
  VSB - VISIBILITY
$$


USA.gov is the U.S. government's official web portal to all federal, state and local government web resources and services.